Hettinger, ND

1:17 AM MST on December 09, 2016 (GMT -0700)
Hettinger Municipal

Weather History for KHEI - October, 2012

Change the Weather History Date:

Wednesday, October 17, 2012

  Actual Average Record
Temperature  
Mean Temperature 46 °F -  
Max Temperature 54 °F 56 °F 84 °F (1997)
Min Temperature 39 °F 29 °F 17 °F (1999)
Degree Days  
Heating Degree Days 20 22  
Month to date heating degree days 325 326  
Since 1 July heating degree days 606 697  
Cooling Degree Days 0 0  
Month to date cooling degree days 0 0  
Year to date cooling degree days 581 376  
Moisture  
Dew Point 25 °F    
Average Humidity 50    
Maximum Humidity 79    
Minimum Humidity 24    
Precipitation  
Precipitation 0.14 in 0.05 in 0.22 in (2006)
Month to date precipitation 0.22 0.56  
Year to date precipitation 14.02 14.48  
Sea Level Pressure  
Sea Level Pressure 29.55 in    
Wind  
Wind Speed 37 mph (WNW)    
Max Wind Speed 48 mph    
Max Gust Speed 71 mph    
Visibility 10 miles    
Events Rain    
T = Trace of Precipitation, MM = Missing Value Source: NWS Daily Summary

Daily Weather History Graph

Daily Weather History Graph

Search for Another Location

Airport or City:

Trip Planner

Search our weather history database for the weather conditions in past years. The results will help you decide how hot, cold, wet, or windy it might be!

Date:

Astronomy

Oct. 17, 2012 Rise Set
Actual Time 7:10 AM MDT 5:59 PM MDT
Civil Twilight 6:40 AM MDT 6:30 PM MDT
Nautical Twilight 6:05 AM MDT 7:04 PM MDT
Astronomical Twilight 5:31 AM MDT 7:39 PM MDT
Moon 9:57 AM MDT (10/17) 7:27 PM MDT (10/17)
Length of Visible Light 11h 49m
Length of Day
10h 49m
Waxing Crescent, 7% of the Moon is Illuminated
Oct 17
Waxing Crescent
Oct 21
First Quarter
Oct 29
Full
Nov 6
Last Quarter
Nov 13
New

Hourly Weather History & Observations

Time (MDT) Temp. Windchill Dew Point Humidity Pressure Visibility Wind Dir Wind Speed Gust Speed Precip Events Conditions
12:53 AM 46.9 °F - 30.9 °F 54% 29.39 in 10.0 mi West 23.0 mph 33.4 mph N/A   Clear
1:53 AM 46.0 °F 36.2 °F 33.1 °F 61% 29.38 in 10.0 mi WNW 33.4 mph 46.0 mph N/A   Clear
2:53 AM 42.1 °F 30.3 °F 34.0 °F 73% 29.40 in 10.0 mi West 36.8 mph 54.1 mph 0.00 in   Mostly Cloudy
3:53 AM 39.0 °F 25.9 °F 34.0 °F 82% 29.40 in 10.0 mi West 38.0 mph 52.9 mph 0.00 in   Overcast
4:53 AM 41.0 °F 29.0 °F 37.0 °F 86% 29.43 in 10.0 mi WNW 35.7 mph 48.3 mph 0.00 in Rain Light Rain
5:53 AM 41.0 °F 29.3 °F 36.0 °F 82% 29.47 in 10.0 mi WNW 33.4 mph 47.2 mph 0.00 in Rain Light Rain
6:53 AM 41.0 °F 29.8 °F 36.0 °F 82% 29.50 in 10.0 mi WNW 29.9 mph 40.3 mph 0.02 in   Overcast
7:04 AM 41.0 °F 29.5 °F 35.6 °F 81% 29.49 in 10.0 mi WNW 32.2 mph 46.0 mph N/A   Overcast
7:53 AM 41.0 °F 29.7 °F 33.1 °F 73% 29.51 in 10.0 mi WNW 31.1 mph 41.4 mph N/A   Overcast
8:53 AM 42.1 °F 31.9 °F 30.9 °F 65% 29.53 in 10.0 mi WNW 26.5 mph 42.6 mph N/A   Partly Cloudy
9:53 AM 44.1 °F 33.3 °F 27.0 °F 51% 29.54 in 10.0 mi WNW 34.5 mph 47.2 mph N/A   Clear
10:53 AM 46.9 °F - 24.1 °F 41% 29.55 in 10.0 mi NW 34.5 mph 54.1 mph N/A   Clear
11:53 AM 48.9 °F - 19.9 °F 32% 29.56 in 10.0 mi NW 41.4 mph 59.8 mph N/A   Clear
12:53 PM 50.0 °F - 18.0 °F 28% 29.55 in 10.0 mi NW 46.0 mph 61.0 mph 0.06 in   Clear
1:53 PM 52.0 °F - 16.0 °F 24% 29.55 in 10.0 mi NW 44.9 mph 66.7 mph 0.01 in   Clear
2:53 PM 52.0 °F - 16.0 °F 24% 29.57 in 10.0 mi WNW 46.0 mph 59.8 mph N/A   Partly Cloudy
3:53 PM 51.1 °F - 15.1 °F 24% 29.58 in 10.0 mi WNW 48.3 mph 62.1 mph 0.03 in   Clear
4:53 PM 48.9 °F - 15.1 °F 26% 29.61 in 10.0 mi NW 47.2 mph 59.8 mph N/A   Clear
6:53 PM 45.0 °F 34.9 °F 16.0 °F 31% 29.65 in 2.5 mi WNW 32.2 mph 46.0 mph N/A   Haze
7:05 PM 44.6 °F 34.7 °F 15.8 °F 31% 29.62 in 6.0 mi WNW 29.9 mph 42.6 mph N/A   Haze
7:18 PM 46.4 °F 35.8 °F 17.6 °F 32% 29.61 in 10.0 mi NW 40.3 mph 51.8 mph N/A   Partly Cloudy
7:53 PM 45.0 °F 34.3 °F 19.9 °F 37% 29.66 in 10.0 mi WNW 36.8 mph 52.9 mph N/A   Clear
8:53 PM 44.1 °F 33.7 °F 21.0 °F 40% 29.67 in 10.0 mi NW 32.2 mph 52.9 mph N/A   Scattered Clouds
9:53 PM 44.1 °F 32.4 °F 21.0 °F 40% 29.67 in 10.0 mi NW 41.4 mph 62.1 mph 0.01 in   Overcast
10:53 PM 42.1 °F 30.3 °F 23.0 °F 47% 29.68 in 10.0 mi NW 36.8 mph 50.6 mph N/A   Partly Cloudy
11:53 PM 43.0 °F 32.2 °F 23.0 °F 45% 29.67 in 10.0 mi NW 32.2 mph 56.4 mph 0.01 in   Overcast